When you browse on this site, cookies collect data to enhance your experience and personalize the content and advertising you see.
Visit our Privacy Policy to learn more. By continuing to use the site, you agree to this use of cookies and data.
  • In Lithuania
  • List of Countries
  • For 7 days
  • Water Temperature
  • Weather Map
  • Weather Widgets
  • user-avatar
    Login

    Hourly Weather Gaborone

    Today, 1 June, Monday

    Time Temperature Precipitation Wind Pressure Humidity
    00:00 +15°C° 0 mm 0 mps 682 mmHg 33%
    01:00 +14°C° 0 mm 0 mps 682 mmHg 34%
    02:00 +15°C° 0 mm 1 mps 682 mmHg 35%
    03:00 +14°C° 0 mm 1 mps 682 mmHg 36%
    04:00 +13°C° 0 mm 0 mps 682 mmHg 37%
    05:00 +12°C° 0 mm 0 mps 682 mmHg 39%
    06:00 +13°C° 0 mm 0 mps 682 mmHg 37%
    07:00 +13°C° 0 mm 0 mps 683 mmHg 36%
    08:00 +14°C° 0 mm 0 mps 683 mmHg 35%
    09:00 +17°C° 0 mm 0 mps 684 mmHg 30%
    10:00 +22°C° 0 mm 1 mps 684 mmHg 24%
    11:00 +25°C° 0 mm 1 mps 685 mmHg 19%
    12:00 +26°C° 0 mm 1 mps 684 mmHg 17%
    13:00 +27°C° 0 mm 1 mps 684 mmHg 15%
    14:00 +28°C° 0 mm 2 mps 683 mmHg 14%
    15:00 +27°C° 0 mm 1 mps 683 mmHg 14%
    16:00 +26°C° 0 mm 1 mps 682 mmHg 15%
    17:00 +25°C° 0 mm 1 mps 682 mmHg 16%
    18:00 +23°C° 0 mm 1 mps 682 mmHg 18%
    19:00 +21°C° 0 mm 1 mps 682 mmHg 21%
    20:00 +19°C° 0 mm 1 mps 682 mmHg 23%
    21:00 +17°C° 0 mm 0 mps 682 mmHg 24%
    22:00 +16°C° 0 mm 0 mps 682 mmHg 26%
    23:00 +15°C° 0 mm 0 mps 682 mmHg 27%

    Tomorrow, 2 June, Tuesday

    Time Temperature Precipitation Wind Pressure Humidity
    00:00 +15°C° 0 mm 0 mps 682 mmHg 28%
    01:00 +14°C° 0 mm 0 mps 681 mmHg 29%
    02:00 +13°C° 0 mm 0 mps 681 mmHg 30%
    03:00 +14°C° 0 mm 1 mps 681 mmHg 31%
    04:00 +13°C° 0 mm 1 mps 681 mmHg 32%
    05:00 +13°C° 0 mm 1 mps 681 mmHg 33%
    06:00 +13°C° 0 mm 1 mps 681 mmHg 33%
    07:00 +14°C° 0 mm 1 mps 682 mmHg 32%
    08:00 +13°C° 0 mm 0 mps 682 mmHg 32%
    09:00 +18°C° 0 mm 1 mps 683 mmHg 29%
    10:00 +21°C° 0 mm 1 mps 683 mmHg 26%
    11:00 +24°C° 0 mm 1 mps 684 mmHg 24%
    12:00 +25°C° 0 mm 1 mps 683 mmHg 22%
    13:00 +26°C° 0 mm 1 mps 683 mmHg 20%
    14:00 +27°C° 0 mm 1 mps 682 mmHg 18%
    15:00 +27°C° 0 mm 1 mps 682 mmHg 19%
    16:00 +26°C° 0 mm 1 mps 682 mmHg 21%
    17:00 +25°C° 0 mm 1 mps 681 mmHg 23%
    18:00 +23°C° 0 mm 1 mps 681 mmHg 27%
    19:00 +21°C° 0 mm 1 mps 681 mmHg 31%
    20:00 +19°C° 0 mm 1 mps 681 mmHg 35%
    21:00 +16°C° 0 mm 0 mps 681 mmHg 37%
    22:00 +16°C° 0 mm 0 mps 681 mmHg 39%
    23:00 +15°C° 0 mm 0 mps 681 mmHg 41%

    Day after tomorrow, 3 June, Wednesday

    Time Temperature Precipitation Wind Pressure Humidity
    00:00 +15°C° 0 mm 0 mps 681 mmHg 42%
    01:00 +15°C° 0 mm 0 mps 680 mmHg 44%
    02:00 +14°C° 0 mm 0 mps 680 mmHg 45%
    03:00 +14°C° 0 mm 1 mps 680 mmHg 48%
    04:00 +14°C° 0 mm 1 mps 680 mmHg 50%
    05:00 +13°C° 0 mm 1 mps 680 mmHg 53%
    06:00 +14°C° 0 mm 1 mps 680 mmHg 52%
    07:00 +14°C° 0 mm 1 mps 681 mmHg 51%
    08:00 +15°C° 0 mm 1 mps 681 mmHg 50%
    09:00 +18°C° 0 mm 1 mps 682 mmHg 44%
    10:00 +21°C° 0 mm 1 mps 682 mmHg 38%
    11:00 +23°C° 0 mm 1 mps 682 mmHg 32%
    12:00 +25°C° 0 mm 2 mps 682 mmHg 29%
    13:00 +26°C° 0 mm 2 mps 681 mmHg 26%
    14:00 +27°C° 0 mm 2 mps 680 mmHg 23%
    15:00 +26°C° 0 mm 2 mps 680 mmHg 23%
    16:00 +25°C° 0 mm 1 mps 680 mmHg 24%
    17:00 +24°C° 0 mm 1 mps 679 mmHg 25%
    18:00 +23°C° 0 mm 1 mps 679 mmHg 28%
    19:00 +21°C° 0 mm 1 mps 679 mmHg 32%
    20:00 +19°C° 0 mm 1 mps 679 mmHg 36%
    21:00 +18°C° 0 mm 1 mps 679 mmHg 37%
    22:00 +16°C° 0 mm 0 mps 679 mmHg 39%
    23:00 +15°C° 0 mm 0 mps 680 mmHg 40%

    4 June, Thursday

    Time Temperature Precipitation Wind Pressure Humidity
    00:00 +15°C° 0 mm 0 mps 679 mmHg 41%
    01:00 +14°C° 0 mm 0 mps 679 mmHg 42%
    02:00 +14°C° 0 mm 0 mps 679 mmHg 43%
    03:00 +14°C° 0 mm 1 mps 679 mmHg 45%
    04:00 +14°C° 0 mm 1 mps 679 mmHg 47%
    05:00 +13°C° 0 mm 1 mps 679 mmHg 49%
    06:00 +14°C° 0 mm 1 mps 679 mmHg 48%
    07:00 +14°C° 0 mm 1 mps 680 mmHg 47%
    08:00 +14°C° 0 mm 1 mps 681 mmHg 47%
    09:00 +17°C° 0 mm 2 mps 681 mmHg 41%
    10:00 +20°C° 0 mm 3 mps 682 mmHg 35%
    11:00 +22°C° 0 mm 3 mps 682 mmHg 30%
    12:00 +23°C° 0 mm 4 mps 682 mmHg 28%
    13:00 +25°C° 0 mm 4 mps 681 mmHg 26%
    14:00 +26°C° 0 mm 4 mps 681 mmHg 24%
    15:00 +26°C° 0 mm 3 mps 681 mmHg 25%
    16:00 +25°C° 0 mm 3 mps 680 mmHg 26%
    17:00 +24°C° 0 mm 2 mps 680 mmHg 28%
    18:00 +21°C° 0 mm 2 mps 680 mmHg 31%
    19:00 +19°C° 0 mm 2 mps 680 mmHg 35%
    20:00 +18°C° 0 mm 1 mps 680 mmHg 39%
    21:00 +16°C° 0 mm 1 mps 681 mmHg 41%
    22:00 +16°C° 0 mm 1 mps 681 mmHg 44%
    23:00 +15°C° 0 mm 1 mps 681 mmHg 47%

    5 June, Friday

    Time Temperature Precipitation Wind Pressure Humidity
    00:00 +14°C° 0 mm 1 mps 681 mmHg 50%
    01:00 +14°C° 0 mm 1 mps 680 mmHg 53%
    02:00 +13°C° 0 mm 2 mps 680 mmHg 56%
    03:00 +12°C° 0 mm 2 mps 680 mmHg 61%
    04:00 +12°C° 0 mm 2 mps 681 mmHg 67%
    05:00 +10°C° 0 mm 2 mps 681 mmHg 72%
    06:00 +10°C° 0 mm 2 mps 681 mmHg 74%
    07:00 +12°C° 0 mm 2 mps 682 mmHg 76%
    08:00 +12°C° 0 mm 2 mps 682 mmHg 78%
    09:00 +14°C° 0 mm 2 mps 683 mmHg 69%
    10:00 +17°C° 0 mm 3 mps 683 mmHg 60%
    11:00 +19°C° 0 mm 3 mps 683 mmHg 51%
    12:00 +21°C° 0 mm 3 mps 683 mmHg 45%
    13:00 +22°C° 0 mm 3 mps 682 mmHg 39%
    14:00 +24°C° 0 mm 2 mps 682 mmHg 33%
    15:00 +24°C° 0 mm 2 mps 682 mmHg 33%
    16:00 +23°C° 0 mm 2 mps 682 mmHg 33%
    17:00 +23°C° 0 mm 2 mps 681 mmHg 32%
    18:00 +21°C° 0 mm 1 mps 681 mmHg 37%
    19:00 +19°C° 0 mm 1 mps 681 mmHg 42%
    20:00 +15°C° 0 mm 0 mps 681 mmHg 47%
    21:00 +15°C° 0 mm 0 mps 681 mmHg 48%
    22:00 +15°C° 0 mm 1 mps 682 mmHg 50%
    23:00 +15°C° 0 mm 1 mps 682 mmHg 51%

    6 June, Saturday

    Time Temperature Precipitation Wind Pressure Humidity
    00:00 +14°C° 0 mm 1 mps 681 mmHg 52%
    01:00 +14°C° 0 mm 1 mps 681 mmHg 54%
    02:00 +13°C° 0 mm 1 mps 681 mmHg 55%
    03:00 +13°C° 0 mm 1 mps 681 mmHg 57%
    04:00 +12°C° 0 mm 1 mps 681 mmHg 59%
    05:00 +12°C° 0 mm 1 mps 681 mmHg 61%
    06:00 +12°C° 0 mm 1 mps 681 mmHg 59%
    07:00 +13°C° 0 mm 1 mps 682 mmHg 58%
    08:00 +13°C° 0 mm 1 mps 682 mmHg 56%
    09:00 +16°C° 0 mm 1 mps 683 mmHg 49%
    10:00 +20°C° 0 mm 1 mps 683 mmHg 41%
    11:00 +22°C° 0 mm 1 mps 684 mmHg 33%
    12:00 +23°C° 0 mm 2 mps 683 mmHg 30%
    13:00 +24°C° 0 mm 2 mps 683 mmHg 26%
    14:00 +26°C° 0 mm 2 mps 682 mmHg 23%
    15:00 +25°C° 0 mm 2 mps 682 mmHg 23%
    16:00 +24°C° 0 mm 2 mps 682 mmHg 24%
    17:00 +24°C° 0 mm 2 mps 681 mmHg 25%
    18:00 +22°C° 0 mm 1 mps 681 mmHg 29%
    19:00 +20°C° 0 mm 1 mps 681 mmHg 33%
    20:00 +18°C° 0 mm 1 mps 681 mmHg 38%
    21:00 +16°C° 0 mm 1 mps 681 mmHg 39%
    22:00 +16°C° 0 mm 1 mps 681 mmHg 41%
    23:00 +15°C° 0 mm 1 mps 681 mmHg 42%
    Show more